SCP
0 0 0 0 0 0 0 0 0 0 0 0 0 0 0 0 0 0 0 0 0 0 0 0 0 0 0
0 0 0 0 0 0 0 0 0 0 0 0 0 0 0 0 0 0 0 0 0 0 0 0 0 0 0
0 0 0 0 0 0 0 0 0 0 0 0 0 0 0 0 0 0 0 0 0 0 0 0 0 0 0
0 0 1 1 1 1 0 0 0 0 0 0 0 0 0 0 0 0 0 0 0 0 0 0 0 0 0
1 1 1 1 1 1 1 1 0 0 0 0 0 0 0 0 0 0 0 0 0 0 0 0 0 0 0
0 0 0 1 1 1 1 1 1 1 0 0 0 0 0 0 0 0 0 0 0 0 0 0 0 0 0
0 0 0 0 0 0 1 1 1 1 0 0 0 0 0 0 0 0 0 0 0 0 0 0 0 0 0
0 0 0 0 0 0 0 0 1 1 1 0 1 0 0 0 0 0 0 0 0 0 0 0 0 0 0
0 0 0 0 0 0 0 0 0 0 0 0 0 0 0 0 0 0 0 0 0 0 0 0 0 0 0
0 0 0 0 0 0 0 0 0 0 0 0 0 0 0 0 0 0 0 0 0 0 0 0 0 0 0
0 0 0 0 0 0 0 0 0 0 0 0 0 0 0 0 0 0 0 0 0 0 0 0 0 0 0
0 0 0 0 0 0 0 0 0 0 0 0 0 1 0 1 0 0 0 0 0 0 0 0 0 0 0
0 0 0 0 0 0 0 0 0 0 0 0 0 0 1 1 1 0 0 0 0 0 0 0 0 0 0
0 0 0 0 0 0 0 0 0 0 0 0 0 0 0 0 1 0 0 0 0 0 0 0 0 0 0
0 0 0 0 0 0 0 0 0 0 0 0 0 0 0 0 0 0 1 0 0 0 0 0 0 0 0
0 0 0 0 0 0 0 0 0 0 0 0 0 0 0 0 0 0 1 1 0 0 0 0 0 0 0
Wind_Speed_500mb
37 37 37 34 32 32 30 28 26 24 22 27 31 33 39 37 33 37 38 44 44 46 46 44 42 45 50
32 34 37 39 37 37 37 35 33 30 26 27 33 37 39 42 41 41 40 45 42 53 47 48 48 46 46
31 36 38 42 43 43 43 43 40 38 35 34 41 42 41 47 46 43 47 52 48 56 52 52 56 52 43
37 41 41 42 45 48 50 50 49 49 42 39 41 43 48 49 50 46 46 52 56 60 62 55 62 63 54
39 45 46 44 46 48 51 54 54 51 51 46 49 53 50 53 55 55 53 47 65 69 62 67 66 68 67
45 45 46 51 54 57 55 54 57 64 63 61 59 60 58 57 64 60 64 60 67 78 63 71 73 75 69
52 53 51 45 39 47 59 64 60 64 74 71 71 67 66 62 63 74 69 70 70 77 79 72 79 82 68
51 54 57 57 46 40 46 58 59 62 71 71 80 78 79 71 72 69 74 74 72 80 84 83 80 90 75
37 43 49 53 55 57 52 47 53 64 71 61 88 84 81 83 82 78 73 79 72 76 92 88 83 90 88
37 41 44 47 50 53 51 47 50 53 53 62 77 69 78 95 95 95 91 86 79 85 94 89 91 93 97
34 40 45 47 49 50 49 44 43 46 51 55 66 67 65 70 88 103 109 98 95 94 99 85 88 90 93
40 45 52 57 57 57 56 54 46 45 43 48 57 66 65 65 72 83 85 98 102 106 95 99 94 98 101
48 44 44 49 47 46 46 52 56 59 50 50 53 59 63 67 70 74 78 74 113 101 89 91 92 81 102
35 37 41 43 51 48 51 55 65 70 66 57 54 57 58 60 71 71 69 78 71 93 96 105 64 74 82
53 61 70 76 81 83 85 85 86 82 81 79 76 70 67 66 66 67 72 73 72 85 96 78 39 52 77
63 69 75 80 82 85 80 78 75 74 92 95 93 91 86 79 71 72 73 75 75 84 100 113 102 81 57
Wind_Direction_500mb
225 233 245 250 254 254 256 260 262 261 264 236 216 221 202 214 224 215 224 194 198 192 193 200 194 194 192
233 235 240 246 251 251 255 259 263 263 259 242 228 226 215 214 218 221 225 199 205 203 204 197 194 192 194
241 241 250 248 249 252 254 257 255 253 250 239 230 233 227 220 223 223 220 206 204 204 210 201 198 195 201
246 243 248 258 255 251 249 250 248 244 239 240 240 241 230 224 225 227 229 216 205 209 212 206 205 197 202
247 252 249 252 255 255 253 251 248 245 243 230 235 241 236 226 223 227 226 226 217 209 217 213 208 208 209
256 258 264 257 256 257 256 256 248 240 246 244 240 238 243 232 223 222 225 226 221 214 216 218 213 210 214
262 262 262 260 265 267 262 257 253 253 246 253 240 233 236 243 231 221 228 226 224 218 219 221 216 212 216
267 269 268 266 259 262 269 267 259 255 254 251 244 249 239 231 235 229 225 223 227 223 221 220 220 217 213
276 276 279 280 277 271 261 261 268 266 255 254 254 252 242 227 232 228 223 227 228 226 223 223 221 219 218
280 279 279 279 278 277 277 271 254 255 260 264 253 250 243 246 236 234 237 226 222 233 229 225 225 221 220
286 281 277 278 276 275 272 264 264 262 255 246 260 260 253 252 238 238 238 229 227 227 227 227 227 220 221
293 285 275 269 269 271 271 270 266 261 259 259 251 261 257 250 249 244 233 231 234 227 223 225 236 224 222
288 284 277 272 268 266 260 261 263 266 257 250 249 256 261 259 252 247 244 243 225 221 220 226 215 207 211
283 277 268 264 258 253 252 251 255 258 256 251 249 251 256 255 259 256 247 242 245 212 210 210 215 212 213
294 284 279 275 271 268 262 259 258 257 256 256 257 254 254 257 257 257 257 247 242 240 237 211 193 221 220
295 285 279 273 270 268 266 264 264 264 262 259 258 256 255 254 252 253 255 256 249 235 230 238 225 215 197
Wind_Speed_850mb
37 37 37 34 32 32 30 28 26 24 22 27 31 33 39 37 33 37 38 44 44 46 46 44 42 45 50
32 34 37 39 37 37 37 35 33 30 26 27 33 37 39 42 41 41 40 45 42 53 47 48 48 46 46
31 36 38 42 43 43 43 43 40 38 35 34 41 42 41 47 46 43 47 52 48 56 52 52 56 52 43
37 41 41 42 45 48 50 50 49 49 42 39 41 43 48 49 50 46 46 52 56 60 62 55 62 63 54
39 45 46 44 46 48 51 54 54 51 51 46 49 53 50 53 55 55 53 47 65 69 62 67 66 68 67
45 45 46 51 54 57 55 54 57 64 63 61 59 60 58 57 64 60 64 60 67 78 63 71 73 75 69
52 53 51 45 39 47 59 64 60 64 74 71 71 67 66 62 63 74 69 70 70 77 79 72 79 82 68
51 54 57 57 46 40 46 58 59 62 71 71 80 78 79 71 72 69 74 74 72 80 84 83 80 90 75
37 43 49 53 55 57 52 47 53 64 71 61 88 84 81 83 82 78 73 79 72 76 92 88 83 90 88
37 41 44 47 50 53 51 47 50 53 53 62 77 69 78 95 95 95 91 86 79 85 94 89 91 93 97
34 40 45 47 49 50 49 44 43 46 51 55 66 67 65 70 88 103 109 98 95 94 99 85 88 90 93
40 45 52 57 57 57 56 54 46 45 43 48 57 66 65 65 72 83 85 98 102 106 95 99 94 98 101
48 44 44 49 47 46 46 52 56 59 50 50 53 59 63 67 70 74 78 74 113 101 89 91 92 81 102
35 37 41 43 51 48 51 55 65 70 66 57 54 57 58 60 71 71 69 78 71 93 96 105 64 74 82
53 61 70 76 81 83 85 85 86 82 81 79 76 70 67 66 66 67 72 73 72 85 96 78 39 52 77
63 69 75 80 82 85 80 78 75 74 92 95 93 91 86 79 71 72 73 75 75 84 100 113 102 81 57
Wind_Direction_850mb
225 233 245 250 254 254 256 260 262 261 264 236 216 221 202 214 224 215 224 194 198 192 193 200 194 194 192
233 235 240 246 251 251 255 259 263 263 259 242 228 226 215 214 218 221 225 199 205 203 204 197 194 192 194
241 241 250 248 249 252 254 257 255 253 250 239 230 233 227 220 223 223 220 206 204 204 210 201 198 195 201
246 243 248 258 255 251 249 250 248 244 239 240 240 241 230 224 225 227 229 216 205 209 212 206 205 197 202
247 252 249 252 255 255 253 251 248 245 243 230 235 241 236 226 223 227 226 226 217 209 217 213 208 208 209
256 258 264 257 256 257 256 256 248 240 246 244 240 238 243 232 223 222 225 226 221 214 216 218 213 210 214
262 262 262 260 265 267 262 257 253 253 246 253 240 233 236 243 231 221 228 226 224 218 219 221 216 212 216
267 269 268 266 259 262 269 267 259 255 254 251 244 249 239 231 235 229 225 223 227 223 221 220 220 217 213
276 276 279 280 277 271 261 261 268 266 255 254 254 252 242 227 232 228 223 227 228 226 223 223 221 219 218
280 279 279 279 278 277 277 271 254 255 260 264 253 250 243 246 236 234 237 226 222 233 229 225 225 221 220
286 281 277 278 276 275 272 264 264 262 255 246 260 260 253 252 238 238 238 229 227 227 227 227 227 220 221
293 285 275 269 269 271 271 270 266 261 259 259 251 261 257 250 249 244 233 231 234 227 223 225 236 224 222
288 284 277 272 268 266 260 261 263 266 257 250 249 256 261 259 252 247 244 243 225 221 220 226 215 207 211
283 277 268 264 258 253 252 251 255 258 256 251 249 251 256 255 259 256 247 242 245 212 210 210 215 212 213
294 284 279 275 271 268 262 259 258 257 256 256 257 254 254 257 257 257 257 247 242 240 237 211 193 221 220
295 285 279 273 270 268 266 264 264 264 262 259 258 256 255 254 252 253 255 256 249 235 230 238 225 215 197